LiveATC.Net - Listen to live air traffic control over the Internet!


ICAO: N40  IATA: N40   Airport: Sky Manor Airport
City: Pittstown   State/Province: New Jersey
Country: United States   Continent: North America
KSMQ METAR Weather: KSMQ 191453Z AUTO VRB03KT 10SM CLR 17/06 A3036 RMK AO2 SLP282 T01720056 50006
N40 Flight Activity (FlightAware)
N40 Webcam:  (Airport Webcams) 
N40 Airport Info   (iFlightPlanner)
N40 VFR Sectional Chart   (iFlightPlanner) 
N40 IFR Low Chart   (iFlightPlanner) 

N40 CTAF/Unicom
Feed Status: UP   Listeners: 0
Listen in your browser - HTML5 player (in browser, HTML5)
Click here to listen with your own player (launches your MP3 player)
N40 CTAF/Unicom Audio Archives
FacilityFrequency
N40 CTAF/UNICOM122.975
Feed sponsored by: Sky Manor Airport

NOTICE

Unauthorized use prohibited. See LiveATC.net Terms of Service


Airport/ARTCC Code
Frequency Search
(e.g., 124.400, 128.75)
Site-wide search
 


Browse LiveATC Feeds
Top 50 LiveATC Feeds
LiveATC Feed Map
Bad Weather Areas

LiveATC FAQ
Offer LiveATC feed
Contact LiveATC.net
Press Inquiries

LiveATC on iPhone
LiveATC on Android

Windows Phone
Windows 8/10

LiveATC Mobile
(Mobile browser)

ATC Audio Archives
Interesting Recordings

LiveATC Forums


Home Page
About LiveATC.net
Make a Donation
Terms of Use
Privacy Policy

Canadian Air Freqs

AIRMETs/SIGMETs

FAA Airport Status
Nat'l Airspace Status
Arrival Demand Charts


Server Software By:
Icecast.org
Liquidsoap